Date,TemperatureHighF,TemperatureAvgF,TemperatureLowF,DewpointHighF,DewpointAvgF,DewpointLowF,HumidityHigh,HumidityAvg,HumidityLow,PressureMaxIn,PressureMinIn,WindSpeedMaxMPH,WindSpeedAvgMPH,GustSpeedMaxMPH,PrecipitationSumIn
2013-5-1,81,70,63,45,39,35,50,34,22,29.47,29.35,7,1,7,0.00
2013-5-2,72,66,60,42,38,34,44,36,32,29.47,29.38,7,1,7,0.00
2013-5-3,78,65,47,45,38,33,72,40,22,29.41,29.17,9,2,9,0.25
2013-5-4,54,46,41,46,38,34,94,74,50,29.35,29.20,172,1,172,2.15
2013-5-5,65,50,42,47,39,29,86,68,29,29.26,29.12,11,0,11,0.46
2013-5-6,59,52,49,55,48,45,98,87,65,29.26,29.12,9,0,9,12.32
2013-5-7,76,58,45,52,40,30,93,58,22,29.35,29.20,9,1,9,0.00
2013-5-8,83,66,53,52,42,33,81,47,20,29.44,29.32,12,1,12,12.32
2013-5-9,86,71,57,53,40,34,76,37,18,29.47,29.35,9,1,9,0.00
2013-5-10,75,66,60,54,46,38,76,50,32,29.41,29.26,10,0,10,0.41
2013-5-11,79,67,55,57,45,35,74,47,25,29.38,29.23,10,1,10,12.73
2013-5-12,73,60,49,43,26,14,61,30,14,29.53,29.35,8,1,8,0.00
2013-5-13,76,59,43,30,24,18,49,28,13,29.65,29.47,10,1,10,0.00
2013-5-14,88,70,53,37,33,29,44,28,16,29.59,29.38,12,2,12,0.00
2013-5-15,91,74,59,41,35,26,48,27,12,29.50,29.32,115,1,115,0.00
2013-5-16,89,74,64,44,37,27,43,27,13,29.41,29.29,58,1,58,0.00
2013-5-17,72,72,72,32,32,32,23,23,23,29.38,29.29,3,0,3,13.44
2013-5-18,85,48,0,59,33,0,66,28,28,29.38,29.29,9,1,9,12.73
2013-5-19,86,75,68,67,54,41,84,51,27,29.38,29.29,173,2,173,0.00
2013-5-20,91,75,64,54,48,40,61,41,19,29.41,29.29,6,0,6,0.00
2013-5-21,93,79,67,57,47,37,65,36,17,29.35,29.17,6,1,6,0.00
2013-5-22,85,73,65,54,46,38,69,40,20,29.26,29.17,8,1,12,0.08
2013-5-23,89,73,63,62,46,34,85,45,18,29.38,29.23,8,1,10,0.00
2013-5-24,81,66,57,46,34,22,63,33,15,29.59,29.38,6,1,229,0.00
2013-5-25,86,67,51,35,28,18,47,26,11,29.65,29.47,6,0,6,0.00
2013-5-26,91,72,54,39,32,24,46,25,12,29.56,29.44,6,1,6,0.00
2013-5-27,92,76,62,43,37,32,41,26,14,29.50,29.35,12,1,12,0.00
2013-5-28,93,78,66,42,39,34,38,26,14,29.47,29.35,58,1,58,0.00
2013-5-29,93,79,68,46,41,37,34,26,17,29.47,29.35,8,0,8,0.00
2013-5-30,90,76,0,50,45,0,46,35,21,29.47,29.26,8,0,8,0.00
2013-5-31,91,78,70,73,66,46,87,68,30,29.38,29.20,5,1,6,0.00